Tracking 32936 objects as of 16-Jan-2026
HD Live streaming from Space Station
objects crossing your sky now

HULIANWANG DIGUI-54

Track HULIANWANG DIGUI-54 now!
10-day predictions


NORAD ID: 65111
Int'l Code: 2025-168F
Perigee: 1,149.0 km
Apogee: 1,163.9 km
Inclination: 50.0 °
Period: 108.3 minutes
Semi major axis: 7527 km
RCS: Unknown
Launch date: August 4, 2025
Source: People's Republic of China (PRC)
Launch site: Wenchang Satellite Launch Center (WSC)
Your satellite tracking list
Your tracking list is empty




NASA's NSSDC Master Catalog

Two Line Element Set (TLE):
1 65111U 25168F   26016.31583073 -.00000102  00000-0  48008-4 0  9999
2 65111  49.9975 150.0993 0009904  10.0575 350.0494 13.29329702 22496
Source of the keplerian elements: AFSPC